Location: ????????
(56.0167°N, 38.0333°E)
Time: 04:24:16
(UTC+00:00)

CZ-2C R/B - Pass Details

Date: 19 May 2025
Orbit: 782 x 867 km, 98.4° (Epoch: 15 June)

Event Time Altitude Azimuth Distance (km) Brightness Sun altitude
Exits shadow 22:36:30 16° 177° (S) 1,984 4.1 -12.5°
Maximum altitude 22:40:42 65° 257° (WSW) 864 2.6 -12.3°
Drops below altitude 10° 22:45:51 10° 340° (NNW) 2,354 5.8 -12.1°
Sets 22:48:13 0° 343° (NNW) 3,289 6.7 -12.0°
